sat.trackr.live / text

‹ back to catalog

SPACEMOBILE-005

NORAD 61046 · 2024-163B

PAYLOAD ACTIVE UNKNOWN

§ Identity

Operator
Country
US
Launch date
2024-09-12
Launch site
AFETR
Launch vehicle
Mass (kg)
RCS (m²)

External: N2YO · Heavens-Above · Gunter

§ Orbital elements

Epoch: 2026-05-24T03:33:51.480864Z

Period
94.69 min
Inclination
52.9731°
Eccentricity
0.0009698
Mean motion
15.20713114 rev/d
Perigee alt
497.0 km
Apogee alt
510.4 km
Semi-major
6,881.8 km
B*
8.5479e-4
RAAN
59.9133°
Arg perigee
51.0989°
Mean anomaly
309.0869°
Rev number
9,410

§ Raw data

SPACEMOBILE-0051 61046U 24163B   26144.14851251  .00018778  00000+0  85479-3 0  99932 61046  52.9731  59.9133 0009698  51.0989 309.0869 15.20713114 94104

JSON: /api/v1/satellites/61046 · /tle

For live sub-satellite position, see the globe view (requires WebGL).

§ Visibility from observer

Set your observer location to see the next 7 days of passes ≥ 10°. The values pass through the URL so the page stays shareable.

No JS? Fill the form by hand. The geolocation button needs JavaScript.

§ Radio — SatNOGS DB

ModeDescriptionDownlinkUplink
GFSK Mode U - Transmitter 430.500 MHz
BPSK S-band telemetry 2.225 GHz
FM S-band telemetry 2.235 GHz

3 transmitters · refreshed weekly from db.satnogs.org